Pittsfield, MA

2:52 PM EST on February 14, 2016 (GMT -0500)
Pittsfield Municipal

Weather History for KPSF - August, 2012

Change the Weather History Date:

Friday, August 31, 2012

  Actual Average Record
Temperature  
Mean Temperature 66 °F 64 °F  
Max Temperature 83 °F 75 °F 90 °F (2010)
Min Temperature 48 °F 53 °F 32 °F (1965)
Degree Days  
Heating Degree Days 0 3  
Month to date heating degree days 21 43  
Since 1 June heating degree days 116 179  
Since 1 July heating degree days 24 78  
Cooling Degree Days 1 2  
Month to date cooling degree days 130 93  
Year to date cooling degree days 440 270  
Since 1 June cooling degree days 396 257  
Growing Degree Days 15 (Base 50)    
Moisture  
Dew Point 54 °F    
Average Humidity 70    
Maximum Humidity 100    
Minimum Humidity 40    
Precipitation  
Precipitation 0.00 in 0.12 in 2.06 in (1954)
Month to date precipitation 4.55 4.09  
Year to date precipitation 21.13 29.78  
Sea Level Pressure  
Sea Level Pressure 29.93 in    
Wind  
Wind Speed 6 mph (WSW)    
Max Wind Speed 15 mph    
Max Gust Speed 34 mph    
Visibility 9 miles    
Events      
T = Trace of Precipitation, MM = Missing Value Source: NWS Daily Summary

Daily Weather History Graph

Daily Weather History Graph

Search for Another Location

Airport or City:

Trip Planner

Search our weather history database for the weather conditions in past years. The results will help you decide how hot, cold, wet, or windy it might be!

Date:

Astronomy

Aug. 31, 2012 Rise Set
Actual Time 6:17 AM EDT 7:28 PM EDT
Civil Twilight 5:48 AM EDT 7:57 PM EDT
Nautical Twilight 5:13 AM EDT 8:31 PM EDT
Astronomical Twilight 4:37 AM EDT 9:07 PM EDT
Moon 7:10 PM EDT (8/31) 6:21 AM EDT (8/31)
Length of Visible Light 14h 08m
Length of Day
13h 10m
Full, 100% of the Moon is Illuminated
Aug 31
Full
Sep 8
Last Quarter
Sep 15
New
Sep 22
First Quarter
Sep 29
Full

Hourly Weather History & Observations

Time (EDT) Temp. Heat Index Dew Point Humidity Pressure Visibility Wind Dir Wind Speed Gust Speed Precip Events Conditions
12:54 AM 55.0 °F - 53.1 °F 93% 29.99 in 10.0 mi Calm Calm - N/A   Clear
1:54 AM 53.1 °F - 51.1 °F 93% 29.99 in 10.0 mi Calm Calm - N/A   Clear
2:54 AM 54.0 °F - 52.0 °F 93% 29.99 in 10.0 mi Calm Calm - N/A   Clear
3:54 AM 51.1 °F - 51.1 °F 100% 29.98 in 4.0 mi Calm Calm - N/A   Clear
4:54 AM 51.1 °F - 50.0 °F 96% 29.97 in 2.5 mi Calm Calm - N/A   Clear
4:58 AM 50.0 °F - 50.0 °F 100% 30.02 in 0.8 mi Calm Calm - N/A   Clear
5:33 AM 50.0 °F - 48.2 °F 94% 30.02 in 2.0 mi Calm Calm - N/A   Clear
5:42 AM 50.0 °F - 48.2 °F 94% 30.02 in 9.0 mi Calm Calm - N/A   Clear
5:54 AM 48.9 °F - 48.0 °F 97% 29.97 in 10.0 mi Calm Calm - N/A   Clear
6:36 AM 50.0 °F - 48.2 °F 94% 30.03 in 10.0 mi Calm Calm - N/A   Partly Cloudy
6:54 AM 50.0 °F - 48.9 °F 96% 29.99 in 7.0 mi Calm Calm - N/A   Partly Cloudy
7:54 AM 55.9 °F - 54.0 °F 93% 29.98 in 10.0 mi Calm Calm - N/A   Clear
8:54 AM 64.9 °F - 57.0 °F 75% 29.97 in 10.0 mi Calm Calm - N/A   Clear
9:54 AM 72.0 °F - 54.0 °F 53% 29.96 in 10.0 mi SW 4.6 mph - N/A   Clear
10:54 AM 75.0 °F - 55.0 °F 50% 29.95 in 10.0 mi WSW 8.1 mph - N/A   Clear
11:54 AM 78.1 °F - 54.0 °F 43% 29.92 in 10.0 mi SW 10.4 mph 34.5 mph N/A   Clear
12:54 PM 80.1 °F 80.1 °F 55.0 °F 42% 29.91 in 10.0 mi WSW 13.8 mph - N/A   Clear
1:54 PM 81.0 °F 80.8 °F 55.9 °F 42% 29.88 in 10.0 mi WSW 11.5 mph - N/A   Clear
2:54 PM 82.9 °F 82.1 °F 55.9 °F 39% 29.84 in 10.0 mi West 12.7 mph 17.3 mph N/A   Clear
3:54 PM 82.9 °F 83.2 °F 60.1 °F 46% 29.83 in 10.0 mi SW 8.1 mph - N/A   Clear
4:54 PM 82.9 °F 83.2 °F 60.1 °F 46% 29.82 in 10.0 mi SW 10.4 mph - N/A   Clear
5:54 PM 82.0 °F 82.7 °F 61.0 °F 49% 29.82 in 10.0 mi SW 9.2 mph - N/A   Clear
6:54 PM 80.1 °F 80.9 °F 60.1 °F 50% 29.82 in 10.0 mi SW 6.9 mph - N/A   Clear
7:54 PM 77.0 °F - 57.9 °F 52% 29.82 in 10.0 mi WSW 6.9 mph - N/A   Clear
9:54 PM 75.9 °F - 57.9 °F 54% 29.82 in 10.0 mi West 10.4 mph - N/A   Scattered Clouds